[[{"header":{"parameterUnit":"m.s-1","parameterCategory":2,"la1":30.2991,"la2":30.254,"lo1":-89.0895,"lo2":-89.0444,"dy":0.0017,"dx":0.0017,"nx":28,"ny":28,"refTime":"2024-08-03T03:00:00:Z","depth":"0","parameterNumber":2,"parameterNumberName":"U-component_of_CURRENTS"},"data":[0,0,0,0,0,0,0,0,0,0,0,0,0,0,0,0,0,0,0,0,0,0,0,0,0,0,0,0,0,0,0,0,0,0,0,0,0,0,0,0,0,0,0,0,0,0,0,0,0,0,0,0,0,0,0,0,0,0,0.195,0.195,0,0.1948,0.1948,0.1948,0.1926,0.1925,0.1925,0.1925,0.1905,0.1905,0.1904,0,0,0,0,0,0,0,0,0,0,0,0,0,0.1934,0.1934,0.195,0.195,0.195,0.1948,0.1948,0.1948,0.1926,0.1925,0.1925,0.1925,0.1905,0.1905,0.1904,0,0,0,0,0,0,0,0,0,0,0,0,0,0.1935,0.1934,0.195,0.1941,0.1941,0.1949,0.1948,0.1948,0.1926,0.1925,0.1925,0.1925,0.1905,0.1905,0.1904,0.191,0,0,0.1903,0.1903,0,0,0,0,0,0,0,0,0.1935,0.1935,0.1942,0.1942,0.1941,0.1939,0.1935,0.1935,0.1926,0.1928,0.1925,0.1924,0.1917,0.1916,0.1912,0.1909,0.1908,0.1903,0.1903,0.1902,0.1902,0,0,0,0,0,0,0,0.1935,0.1935,0.1946,0.1943,0.1942,0.1938,0.1937,0.1935,0.1922,0.1928,0.1927,0.1932,0.1916,0.1913,0.1912,0.1908,0.1903,0.1903,0.1902,0.1902,0.2051,0.2055,0,0,0,0,0,0,0.1941,0.1935,0.1946,0.1946,0.194,0.1939,0.1938,0.1938,0.1923,0.1921,0.1932,0.1931,0.1913,0.1912,0.1911,0.2028,0.1902,0.1902,0.1902,0.2047,0.2052,0.2056,0,0,0,0,0,0,0.1941,0.1942,0.1946,0.1943,0.1944,0.194,0.194,0.1938,0.1942,0.1927,0.1924,0.194,0.1913,0.1911,0.1947,0.2023,0.1902,0.1902,0.2042,0.2048,0.2054,0.2191,0,0,0,0,0,0,0.194,0.1942,0.1943,0.1944,0.1944,0.1962,0.1941,0.1939,0.1947,0.1945,0.1932,0.1929,0.1913,0.1948,0.1947,0.202,0.1901,0.2036,0.2045,0.2052,0.2181,0.2201,0.2218,0,0,0,0,0,0.194,0.1951,0.1943,0.1945,0.1947,0.1963,0.1963,0.1956,0.1948,0.1957,0.1969,0.193,0.1998,0.1951,0.1948,0.2023,0.2033,0.2042,0.2051,0.2173,0.2197,0.2218,0,0,0,0,0,0,0.1939,0.195,0.1942,0.1952,0.196,0.1961,0.1973,0.1966,0.1979,0.1984,0.1964,0.1963,0.2041,0.201,0.1958,0.2095,0.2017,0.2026,0.2111,0.2133,0.2151,0.2205,0.1901,0,0,0,0,0,0.1941,0.196,0.196,0.1973,0.1978,0.1976,0.1981,0.198,0.1993,0.1997,0.1994,0.2016,0.2077,0.2083,0.2116,0.216,0.2246,0.2216,0.2235,0.2251,0.2298,0.2547,0.2594,0.2087,0.2087,0.2087,0,0,0.1945,0.1956,0.1964,0.1976,0.1981,0.2011,0.1978,0.1999,0.2042,0.1994,0.2051,0.208,0.211,0.2191,0.2221,0.2167,0.2432,0.2263,0.2275,0.2315,0.2563,0.2612,0.2657,0.2094,0.2092,0.2091,0,0,0.1979,0.1973,0.2002,0.2021,0.2041,0.2041,0.2052,0.206,0.2082,0.2127,0.2153,0.2244,0.2247,0.2338,0.2374,0.2515,0.2538,0.2499,0.2615,0.2856,0.2901,0.2942,0.3079,0.3131,0.2489,0.249,0.249,0,0.1983,0.2017,0.2013,0.2056,0.2085,0.2062,0.2108,0.2132,0.2157,0.223,0.216,0.2347,0.2346,0.2549,0.2588,0.2564,0.2663,0.2519,0.2886,0.2928,0.2967,0.3098,0.3154,0.2497,0.2497,0.2496,0.2495,0,0.2048,0.2075,0.21,0.2147,0.2176,0.2211,0.2244,0.2294,0.2302,0.2352,0.2528,0.2558,0.2688,0.2697,0.2666,0.2953,0.2919,0.2897,0.2831,0.3027,0.3151,0.3207,0.2508,0.2506,0.2503,0.2501,0,0,0.2064,0.2128,0.214,0.2199,0.2231,0.2282,0.2366,0.2475,0.2597,0.263,0.2818,0.2923,0.2968,0.3018,0.3031,0.3195,0.3516,0.3148,0.3157,0.3287,0.4003,0.3852,0.3897,0.3565,0.3577,0.3586,0.3963,0,0.2115,0.2222,0.223,0.2345,0.2409,0.2441,0.2532,0.2644,0.2721,0.289,0.3007,0.3163,0.3083,0.3159,0.3334,0.3466,0.3676,0.3413,0.3791,0.3801,0.3651,0.3963,0.3831,0.4148,0.4018,0.4027,0.4033,0,0.2189,0.2255,0.2367,0.2496,0.2527,0.2587,0.2786,0.2864,0.3085,0.3159,0.3353,0.3426,0.3673,0.3571,0.3969,0.38,0.3948,0.4035,0.4053,0.3915,0.3759,0.3941,0.4254,0.4143,0.4119,0.4112,0.4106,0,0.2279,0.2369,0.2472,0.2513,0.2634,0.2719,0.2782,0.297,0.3092,0.3357,0.3482,0.3761,0.3895,0.4152,0.4266,0.4175,0.4681,0.4587,0.4619,0.4604,0.4571,0.4535,0.4835,0.4994,0.4994,0.4993,0.4991,0,0.2376,0.2473,0.2523,0.261,0.277,0.2803,0.3008,0.3125,0.3305,0.3477,0.3634,0.381,0.4057,0.4308,0.4434,0.4677,0.485,0.4739,0.4754,0.4601,0.4565,0.4519,0.4415,0.5006,0.5003,0.5001,0.4998,0,0.2529,0.253,0.2688,0.2799,0.2833,0.297,0.3112,0.3236,0.3387,0.3617,0.3704,0.3945,0.4212,0.4436,0.4823,0.4869,0.4998,0.5184,0.4913,0.4889,0.4718,0.4623,0.4752,0.4614,0.5307,0.5307,0.5306,0,0.2659,0.2731,0.2861,0.2908,0.2962,0.311,0.3178,0.3304,0.3404,0.3666,0.3766,0.4068,0.4235,0.4697,0.4887,0.5173,0.5018,0.52,0.5021,0.4785,0.4697,0.4438,0.4293,0.5031,0.5029,0.5027,0.5025,0,0.2889,0.2897,0.2979,0.3068,0.3133,0.3239,0.3323,0.3402,0.3512,0.366,0.3804,0.3948,0.4345,0.4536,0.4881,0.5029,0.4912,0.5155,0.5081,0.4675,0.4265,0.4107,0.4612,0.5005,0.5007,0.5009,0.501,0.5011,0.3027,0.3096,0.3106,0.3192,0.3241,0.325,0.328,0.3327,0.3418,0.3514,0.3719,0.3874,0.4244,0.4663,0.4767,0.4863,0.4776,0.4818,0.4777,0.4577,0.4287,0.4668,0.494,0.4941,0.4942,0.4943,0.4944,0,0.3102,0.3099,0.3198,0.3205,0.3197,0.3237,0.3263,0.3217,0.32,0.3383,0.3482,0.384,0.4081,0.4355,0.4624,0.4559,0.4356,0.4466,0.4155,0.4072,0.4636,0.446,0.4434,0.4434,0.4434,0.4435,0.4435,0.4435,0.3107,0.3121,0.3134,0.3092,0.3085,0.2993,0.2955,0.2914,0.2988,0.3081,0.3252,0.348,0.3913,0.4309,0.4348,0.4277,0.3987,0.3828,0.3771,0.4235,0.4264,0.4292,0.4109,0.401,0.401,0.3073,0.3066,0.3061]},{"header":{"parameterUnit":"m.s-1","parameterCategory":2,"la1":30.2991,"la2":30.254,"lo1":-89.0895,"lo2":-89.0444,"dy":0.0017,"dx":0.0017,"nx":28,"ny":28,"refTime":"2024-08-03T03:00:00:Z","depth":"0","parameterNumber":3,"parameterNumberName":"V-component_of_CURRENTS"},"data":[0,0,0,0,0,0,0,0,0,0,0,0,0,0,0,0,0,0,0,0,0,0,0,0,0,0,0,0,0,0,0,0,0,0,0,0,0,0,0,0,0,0,0,0,0,0,0,0,0,0,0,0,0,0,0,0,0,0,0.0199,0.0199,0,0.0134,0.0133,0.0132,0.0097,0.0097,0.0097,0.0098,0.0016,0.0014,0.0011,0,0,0,0,0,0,0,0,0,0,0,0,0,0.0123,0.0125,0.02,0.0199,0.0199,0.0134,0.0133,0.0132,0.0097,0.0097,0.0097,0.0098,0.0017,0.0014,0.0011,0,0,0,0,0,0,0,0,0,0,0,0,0,0.0113,0.0126,0.02,0.0177,0.0174,0.0135,0.0133,0.0131,0.0097,0.0097,0.0097,0.0098,0.0018,0.0014,0.0011,-0.0022,0,0,-0.0001,-0.0002,0,0,0,0,0,0,0,0,0.0114,0.0115,0.018,0.0178,0.0175,0.0128,0.0076,0.0081,0.0096,0.0121,0.0098,0.0098,0.0055,0.0048,0.0028,-0.0025,-0.0029,-0.0001,-0.0003,-0.0005,-0.0006,0,0,0,0,0,0,0,0.0115,0.0117,0.0169,0.018,0.0177,0.0111,0.0111,0.0076,0.0082,0.0119,0.0118,0.0117,0.0053,0.0032,0.0026,-0.003,-0.0001,-0.0004,-0.0006,-0.0008,0.0004,0.0006,0,0,0,0,0,0,0.014,0.0119,0.0171,0.0168,0.015,0.0113,0.0113,0.0139,0.0083,0.0076,0.0117,0.0116,0.0038,0.0031,0.0023,0.0105,-0.0005,-0.0008,-0.001,0.0001,0.0004,0.0007,0,0,0,0,0,0,0.0139,0.0147,0.0174,0.0143,0.0143,0.0116,0.0144,0.0138,0.0124,0.0082,0.0074,0.0112,0.0038,0.0029,0.002,0.0097,-0.001,-0.0013,-0.0002,0.0002,0.0006,0.0189,0,0,0,0,0,0,0.0138,0.0147,0.0168,0.0146,0.0146,0.0162,0.0144,0.0136,0.0125,0.0123,0.0075,0.0067,0.0038,0.0026,0.0017,0.009,-0.0016,-0.0005,0.0,0.0005,0.018,0.0199,0.0215,0,0,0,0,0,0.0136,0.0164,0.017,0.0176,0.0179,0.0163,0.0155,0.0133,0.0125,0.0121,0.0105,0.0069,0.0051,0.0024,0.0013,0.0087,-0.0007,-0.0001,0.0004,0.0172,0.0195,0.0214,0,0,0,0,0,0,0.0148,0.0163,0.0169,0.0204,0.0191,0.0159,0.0152,0.0138,0.0118,0.0121,0.008,0.0072,0.0104,0.0056,0.0029,0.0105,0.0024,0.0027,0.0156,0.0176,0.0194,0.0272,-0.0019,0,0,0,0,0,0.0163,0.0185,0.0184,0.021,0.0207,0.018,0.0169,0.0159,0.0141,0.0132,0.0107,0.0095,0.0115,0.0113,0.0101,0.0119,0.0121,0.0165,0.0183,0.0198,0.0254,0.0338,0.0369,0.0026,0.0026,0.0026,0,0,0.0174,0.0185,0.0198,0.0212,0.0198,0.0215,0.0174,0.0167,0.0205,0.0127,0.0158,0.0145,0.0132,0.0178,0.0189,0.0149,0.0285,0.0205,0.0219,0.0268,0.0347,0.0381,0.0411,0.003,0.0029,0.0028,0,0,0.0202,0.022,0.0244,0.0243,0.0238,0.0231,0.0237,0.0217,0.0232,0.0247,0.024,0.0288,0.0247,0.0307,0.0322,0.0424,0.0375,0.0398,0.0552,0.0632,0.0663,0.0689,0.0692,0.0718,0.0408,0.0408,0.0409,0,0.0212,0.027,0.0243,0.0267,0.0294,0.0251,0.0297,0.0298,0.0285,0.035,0.0278,0.0372,0.0337,0.0494,0.053,0.0475,0.0472,0.0475,0.0661,0.0687,0.0712,0.0709,0.0735,0.0418,0.0417,0.0416,0.0415,0,0.0262,0.0311,0.0322,0.036,0.0371,0.04,0.0414,0.0447,0.0453,0.0485,0.0611,0.0587,0.067,0.0659,0.0617,0.08,0.0723,0.0674,0.0617,0.0758,0.0743,0.0768,0.0432,0.0428,0.0425,0.0423,0,0,0.0294,0.0353,0.0358,0.0436,0.044,0.0481,0.0547,0.0651,0.0782,0.0758,0.0942,0.0967,0.0984,0.1006,0.0983,0.1041,0.1173,0.0934,0.0933,0.0954,0.1301,0.1167,0.1179,0.1151,0.1157,0.1162,0.1206,0,0.0355,0.0459,0.0456,0.0585,0.0665,0.0675,0.077,0.0856,0.092,0.1072,0.1114,0.1241,0.1108,0.1178,0.1224,0.1199,0.1252,0.1163,0.1147,0.1146,0.1028,0.121,0.1084,0.1107,0.1229,0.1232,0.1235,0,0.0429,0.0503,0.0637,0.0805,0.084,0.0904,0.1119,0.1196,0.137,0.143,0.1556,0.1568,0.1688,0.1538,0.159,0.153,0.1452,0.1397,0.1397,0.1243,0.1063,0.0993,0.1145,0.0833,0.1271,0.1269,0.1266,0,0.0557,0.0657,0.0797,0.0837,0.0979,0.1082,0.1167,0.1331,0.1466,0.1682,0.1802,0.191,0.1989,0.1934,0.1764,0.1707,0.1775,0.168,0.1493,0.1478,0.1359,0.1323,0.1235,0.1759,0.1759,0.1759,0.1759,0,0.069,0.0819,0.0876,0.098,0.1183,0.1226,0.147,0.1585,0.1772,0.1976,0.2008,0.2174,0.2094,0.2085,0.1906,0.1762,0.1883,0.1586,0.1526,0.1407,0.1377,0.1084,0.0927,0.176,0.176,0.176,0.1759,0,0.0882,0.0895,0.1085,0.1221,0.1266,0.143,0.1614,0.1788,0.1941,0.2207,0.2283,0.2414,0.2413,0.2258,0.2177,0.1954,0.1631,0.1725,0.1544,0.1464,0.0993,0.0851,0.0778,0.0652,0.158,0.1578,0.1576,0,0.1035,0.1128,0.1263,0.1333,0.1407,0.1594,0.1716,0.1875,0.2048,0.2339,0.2487,0.2585,0.266,0.2456,0.2111,0.182,0.1573,0.149,0.1387,0.1011,0.0811,0.0728,0.0622,0.1275,0.127,0.1267,0.1264,0,0.1303,0.1304,0.141,0.1533,0.165,0.1816,0.2003,0.2151,0.2352,0.2552,0.2789,0.287,0.2701,0.2394,0.1983,0.1734,0.1232,0.1408,0.1112,0.0674,0.0496,0.0326,0.1134,0.1233,0.1236,0.1238,0.124,0.1241,0.1461,0.1539,0.1584,0.1716,0.184,0.2008,0.216,0.2335,0.2581,0.2866,0.2944,0.3071,0.2604,0.2056,0.1687,0.0902,0.1022,0.0649,0.0539,0.0515,0.0318,0.1021,0.0986,0.0988,0.0989,0.099,0.0991,0,0.1585,0.1608,0.1749,0.187,0.2019,0.207,0.2316,0.2453,0.2697,0.2932,0.3101,0.291,0.2276,0.1662,0.0665,0.0122,-0.0045,-0.0173,-0.0324,-0.0364,0.0334,0.0237,-0.0075,-0.0075,-0.0074,-0.0074,-0.0074,-0.0073,0.1618,0.1698,0.1745,0.1964,0.2076,0.2272,0.2405,0.2607,0.2798,0.3007,0.3075,0.3123,0.2569,0.0836,-0.037,-0.0646,-0.1014,-0.112,-0.121,-0.0806,-0.0739,-0.0674,-0.0802,-0.1327,-0.1328,-0.1893,-0.1899,-0.1904]}],[{"header":{"parameterUnit":"m.s-1","parameterCategory":2,"la1":30.2991,"la2":30.254,"lo1":-89.0895,"lo2":-89.0444,"dy":0.0017,"dx":0.0017,"nx":28,"ny":28,"refTime":"2024-08-03T03:00:00:Z","depth":"2","parameterNumber":2,"parameterNumberName":"U-component_of_CURRENTS"},"data":[0,0,0,0,0,0,0,0,0,0,0,0,0,0,0,0,0,0,0,0,0,0,0,0,0,0,0,0,0,0,0,0,0,0,0,0,0,0,0,0,0,0,0,0,0,0,0,0,0,0,0,0,0,0,0,0,0,0,0.1976,0.1977,0,0.2046,0.2047,0.2047,0.2064,0.2064,0.2064,0.2063,0.2106,0.2107,0.2109,0,0,0,0,0,0,0,0,0,0,0,0,0,0.1866,0.1867,0.1976,0.1977,0.1978,0.2046,0.2047,0.2048,0.2065,0.2064,0.2064,0.2063,0.2105,0.2107,0.2109,0,0,0,0,0,0,0,0,0,0,0,0,0,0.1921,0.1868,0.1976,0.1996,0.1998,0.2046,0.2047,0.2048,0.2065,0.2064,0.2064,0.2063,0.2105,0.2107,0.2109,0.2133,0,0,0.2116,0.2117,0,0,0,0,0,0,0,0,0.1918,0.1925,0.1992,0.1994,0.1997,0.2047,0.2024,0.2075,0.2065,0.2038,0.2063,0.2063,0.2085,0.2089,0.2102,0.2135,0.2136,0.2116,0.2117,0.2118,0.2119,0,0,0,0,0,0,0,0.1914,0.1922,0.2002,0.1993,0.1996,0.2004,0.2011,0.2033,0.2062,0.204,0.2042,0.2052,0.2086,0.2099,0.2103,0.2137,0.2116,0.2118,0.2119,0.212,0.2239,0.2241,0,0,0,0,0,0,0.1909,0.1919,0.2,0.2005,0.1957,0.2007,0.2014,0.2031,0.2062,0.2067,0.2052,0.2053,0.2096,0.21,0.2104,0.2168,0.2118,0.212,0.2121,0.2237,0.224,0.2242,0,0,0,0,0,0,0.1906,0.1915,0.1997,0.1964,0.1975,0.2009,0.2027,0.2032,0.205,0.2072,0.2076,0.2066,0.2096,0.2101,0.2138,0.2168,0.2121,0.2123,0.2235,0.2238,0.2241,0.2273,0,0,0,0,0,0,0.1903,0.1914,0.1926,0.1964,0.1977,0.2035,0.2028,0.2034,0.2058,0.2059,0.2085,0.2088,0.2096,0.2135,0.214,0.217,0.2125,0.2233,0.2236,0.224,0.227,0.2277,0.2283,0,0,0,0,0,0.1899,0.1917,0.1926,0.1936,0.1991,0.2036,0.2044,0.2065,0.2059,0.2077,0.2095,0.2087,0.2161,0.2138,0.2144,0.2175,0.2231,0.2235,0.2239,0.2267,0.2276,0.2283,0,0,0,0,0,0,0.1875,0.1922,0.1932,0.1964,0.2001,0.204,0.2059,0.2069,0.2098,0.2097,0.2108,0.2114,0.216,0.2166,0.214,0.2223,0.2197,0.2202,0.2216,0.2224,0.223,0.2279,0.2127,0,0,0,0,0,0.1876,0.1904,0.1947,0.1975,0.1993,0.2025,0.2045,0.2062,0.2091,0.2103,0.2124,0.215,0.2183,0.2199,0.2228,0.2269,0.2293,0.2296,0.2302,0.2308,0.2353,0.2438,0.2457,0.2255,0.2255,0.2255,0,0,0.1874,0.1905,0.192,0.1972,0.2,0.2044,0.2036,0.2073,0.2114,0.2103,0.2161,0.2173,0.2199,0.225,0.2271,0.2257,0.2362,0.2313,0.2317,0.2361,0.2445,0.2464,0.2482,0.2258,0.2258,0.2257,0,0,0.1893,0.1913,0.1947,0.1982,0.2031,0.2056,0.2068,0.2114,0.2137,0.2189,0.2196,0.2234,0.2276,0.2311,0.233,0.2393,0.2395,0.2393,0.2466,0.2546,0.2564,0.258,0.2567,0.2582,0.2396,0.2396,0.2396,0,0.1886,0.1942,0.1963,0.2009,0.2042,0.2064,0.211,0.2145,0.2199,0.223,0.2213,0.2315,0.2315,0.2404,0.2423,0.241,0.2432,0.2425,0.2556,0.2573,0.2589,0.2572,0.2588,0.2398,0.2398,0.2397,0.2397,0,0.1938,0.1983,0.2006,0.2074,0.2108,0.2152,0.22,0.2241,0.2262,0.2299,0.2386,0.241,0.2472,0.2473,0.2466,0.2583,0.2548,0.255,0.2534,0.2611,0.2587,0.2603,0.2401,0.24,0.2399,0.2399,0,0,0.1928,0.2023,0.2032,0.2077,0.2146,0.2181,0.2251,0.2326,0.2375,0.2437,0.2511,0.2579,0.2594,0.2622,0.2624,0.2699,0.2781,0.2681,0.2684,0.2664,0.291,0.2831,0.284,0.2817,0.2822,0.2826,0.2821,0,0.1966,0.206,0.2092,0.218,0.2238,0.2275,0.2336,0.2401,0.2448,0.252,0.2583,0.2644,0.265,0.2668,0.2756,0.2787,0.284,0.2779,0.2844,0.2845,0.2766,0.2864,0.2652,0.263,0.2836,0.2839,0.2841,0,0.2021,0.2078,0.2162,0.2254,0.2277,0.232,0.2414,0.2467,0.2566,0.2604,0.27,0.2729,0.2845,0.2823,0.2972,0.2939,0.2941,0.296,0.2959,0.2907,0.2802,0.2602,0.2651,0.2868,0.2866,0.2864,0.2862,0,0.2033,0.2134,0.2199,0.2231,0.2326,0.2362,0.2407,0.2496,0.2548,0.2654,0.2702,0.2837,0.2895,0.2989,0.3019,0.3008,0.3155,0.3124,0.3051,0.304,0.2887,0.2857,0.3236,0.3236,0.3236,0.3236,0.3236,0,0.2076,0.2133,0.2208,0.2245,0.2306,0.2371,0.2437,0.2498,0.2595,0.2659,0.2743,0.2829,0.2956,0.3034,0.3058,0.311,0.3183,0.3102,0.3073,0.2882,0.2853,0.3096,0.308,0.3236,0.3236,0.3236,0.3236,0,0.2075,0.2136,0.2203,0.2287,0.2315,0.2347,0.2432,0.247,0.2582,0.267,0.2704,0.2853,0.2982,0.3058,0.3173,0.3139,0.3186,0.3165,0.2886,0.2828,0.2992,0.2978,0.3106,0.3104,0.3103,0.3101,0.31,0,0.2077,0.2116,0.2196,0.2196,0.2222,0.2285,0.2312,0.2441,0.2482,0.2681,0.2709,0.2876,0.297,0.3096,0.3087,0.3105,0.3181,0.2871,0.284,0.3041,0.2999,0.2987,0.2975,0.26,0.2595,0.2591,0.2587,0,0.2032,0.2056,0.2081,0.2108,0.2128,0.2175,0.2236,0.2288,0.2434,0.2551,0.2695,0.2797,0.2929,0.2895,0.2908,0.2879,0.2862,0.2787,0.3114,0.2678,0.2568,0.2525,0.2529,0.255,0.2554,0.2556,0.2559,0.256,0.1942,0.194,0.1957,0.1981,0.2008,0.2041,0.2072,0.2156,0.2264,0.2385,0.2526,0.2605,0.2664,0.2622,0.2565,0.2516,0.2701,0.2571,0.2582,0.2598,0.2554,0.245,0.2394,0.2397,0.2399,0.2401,0.2403,0,0.1795,0.1824,0.1823,0.1852,0.1852,0.1929,0.1994,0.2012,0.2116,0.2217,0.2307,0.213,0.2157,0.2259,0.2143,0.2123,0.2074,0.2044,0.1984,0.2023,0.2058,0.1984,0.1674,0.1671,0.1669,0.1667,0,0,0.1707,0.1667,0.1701,0.1684,0.173,0.1741,0.178,0.1826,0.1893,0.1872,0.1889,0.1995,0.2177,0.1874,0.1855,0.1777,0.1875,0.1698,0.2289,0.2259,0.229,0.2374,0.2307,0,0,0,0,0]},{"header":{"parameterUnit":"m.s-1","parameterCategory":2,"la1":30.2991,"la2":30.254,"lo1":-89.0895,"lo2":-89.0444,"dy":0.0017,"dx":0.0017,"nx":28,"ny":28,"refTime":"2024-08-03T03:00:00:Z","depth":"2","parameterNumber":3,"parameterNumberName":"V-component_of_CURRENTS"},"data":[0,0,0,0,0,0,0,0,0,0,0,0,0,0,0,0,0,0,0,0,0,0,0,0,0,0,0,0,0,0,0,0,0,0,0,0,0,0,0,0,0,0,0,0,0,0,0,0,0,0,0,0,0,0,0,0,0,0,-0.0803,-0.0803,0,-0.0833,-0.0833,-0.0833,-0.0859,-0.086,-0.086,-0.086,-0.0864,-0.0864,-0.0863,0,0,0,0,0,0,0,0,0,0,0,0,0,-0.0784,-0.0784,-0.0803,-0.0803,-0.0803,-0.0833,-0.0833,-0.0833,-0.0859,-0.086,-0.086,-0.086,-0.0864,-0.0864,-0.0863,0,0,0,0,0,0,0,0,0,0,0,0,0,-0.08,-0.0784,-0.0803,-0.082,-0.0822,-0.0833,-0.0833,-0.0834,-0.0859,-0.086,-0.086,-0.086,-0.0864,-0.0864,-0.0863,-0.0852,0,0,-0.0862,-0.0862,0,0,0,0,0,0,0,0,-0.0799,-0.0801,-0.0817,-0.0819,-0.0821,-0.0843,-0.0828,-0.0839,-0.0859,-0.0845,-0.086,-0.0861,-0.0854,-0.0855,-0.0859,-0.0852,-0.0853,-0.0862,-0.0862,-0.0862,-0.0862,0,0,0,0,0,0,0,-0.0798,-0.08,-0.0814,-0.0817,-0.082,-0.0832,-0.0835,-0.083,-0.0846,-0.0846,-0.0848,-0.0852,-0.0855,-0.086,-0.086,-0.0853,-0.0862,-0.0862,-0.0862,-0.0862,-0.0862,-0.0862,0,0,0,0,0,0,-0.0793,-0.0799,-0.0813,-0.0815,-0.0811,-0.0832,-0.0835,-0.0835,-0.0846,-0.0849,-0.0851,-0.0853,-0.086,-0.086,-0.086,-0.0856,-0.0862,-0.0862,-0.0862,-0.0862,-0.0862,-0.0862,0,0,0,0,0,0,-0.0793,-0.0794,-0.0812,-0.0808,-0.0811,-0.0831,-0.0832,-0.0836,-0.0839,-0.0851,-0.0853,-0.0851,-0.086,-0.086,-0.086,-0.0856,-0.0862,-0.0861,-0.0861,-0.0862,-0.0862,-0.0842,0,0,0,0,0,0,-0.0792,-0.0794,-0.0792,-0.0808,-0.0811,-0.0809,-0.0831,-0.0836,-0.0841,-0.0843,-0.0851,-0.0852,-0.0861,-0.0861,-0.086,-0.0855,-0.0861,-0.0861,-0.0861,-0.0862,-0.0843,-0.0842,-0.0841,0,0,0,0,0,-0.0791,-0.0777,-0.0791,-0.0793,-0.0808,-0.0809,-0.0811,-0.0828,-0.084,-0.0834,-0.085,-0.0852,-0.0863,-0.086,-0.0859,-0.0855,-0.0861,-0.0861,-0.0862,-0.0843,-0.0842,-0.0841,0,0,0,0,0,0,-0.076,-0.0779,-0.0795,-0.0786,-0.0796,-0.0813,-0.0808,-0.0823,-0.0831,-0.0834,-0.0849,-0.0851,-0.0856,-0.0856,-0.0853,-0.0858,-0.0864,-0.0864,-0.085,-0.0849,-0.0848,-0.0787,-0.0861,0,0,0,0,0,-0.0755,-0.0753,-0.0773,-0.0766,-0.0769,-0.079,-0.0794,-0.0805,-0.0815,-0.082,-0.0829,-0.0841,-0.0857,-0.0852,-0.0864,-0.0854,-0.086,-0.0853,-0.0852,-0.0851,-0.0803,-0.0812,-0.0806,-0.0863,-0.0863,-0.0863,0,0,-0.0741,-0.0751,-0.075,-0.076,-0.077,-0.0771,-0.0793,-0.0791,-0.0791,-0.0817,-0.0816,-0.0839,-0.0857,-0.086,-0.086,-0.0855,-0.0853,-0.0852,-0.0851,-0.0801,-0.0811,-0.0806,-0.08,-0.0863,-0.0863,-0.0863,0,0,-0.0708,-0.0721,-0.0711,-0.0719,-0.0732,-0.0747,-0.0746,-0.0762,-0.0767,-0.0771,-0.0802,-0.0817,-0.0826,-0.0841,-0.0851,-0.0847,-0.0857,-0.0856,-0.0787,-0.0799,-0.0793,-0.0788,-0.0849,-0.0849,-0.0845,-0.0844,-0.0844,0,-0.069,-0.0685,-0.0706,-0.07,-0.0704,-0.0736,-0.0725,-0.0736,-0.075,-0.0736,-0.0765,-0.0767,-0.0816,-0.0794,-0.0813,-0.0843,-0.0854,-0.0792,-0.0795,-0.079,-0.0785,-0.0848,-0.0848,-0.0844,-0.0844,-0.0844,-0.0844,0,-0.0656,-0.0653,-0.0644,-0.0655,-0.0662,-0.0654,-0.0677,-0.0664,-0.0682,-0.0693,-0.0671,-0.0716,-0.0696,-0.0746,-0.0785,-0.0766,-0.0793,-0.0804,-0.0793,-0.0778,-0.0846,-0.0847,-0.0842,-0.0843,-0.0843,-0.0843,0,0,-0.0598,-0.0618,-0.0614,-0.0611,-0.0637,-0.0631,-0.0619,-0.0606,-0.057,-0.0589,-0.0545,-0.0598,-0.0588,-0.0596,-0.0637,-0.0664,-0.0713,-0.0709,-0.0711,-0.0759,-0.0757,-0.0758,-0.076,-0.0712,-0.071,-0.0709,-0.084,0,-0.0562,-0.0538,-0.0568,-0.0549,-0.0533,-0.0555,-0.0535,-0.0528,-0.0525,-0.0494,-0.0513,-0.051,-0.054,-0.0539,-0.0552,-0.0661,-0.0701,-0.0677,-0.0769,-0.0772,-0.0765,-0.0755,-0.0693,-0.0799,-0.0841,-0.0841,-0.0842,0,-0.0508,-0.0501,-0.0467,-0.047,-0.0466,-0.0457,-0.0406,-0.0398,-0.0366,-0.0355,-0.0304,-0.034,-0.035,-0.0413,-0.0488,-0.0459,-0.0589,-0.069,-0.0698,-0.0683,-0.077,-0.0809,-0.0799,-0.0843,-0.0843,-0.0843,-0.0843,0,-0.043,-0.043,-0.0397,-0.0399,-0.0401,-0.0369,-0.0368,-0.0331,-0.0305,-0.0261,-0.0239,-0.0217,-0.0246,-0.0312,-0.0505,-0.0489,-0.0645,-0.0657,-0.0779,-0.0784,-0.0736,-0.0737,-0.0733,-0.0733,-0.0732,-0.0732,-0.0731,0,-0.0375,-0.0349,-0.0346,-0.0327,-0.027,-0.0294,-0.023,-0.0201,-0.0165,-0.0118,-0.0144,-0.0108,-0.0225,-0.0333,-0.0467,-0.061,-0.0601,-0.0743,-0.0793,-0.0737,-0.0736,-0.076,-0.0761,-0.0737,-0.0736,-0.0735,-0.0734,0,-0.031,-0.0303,-0.0261,-0.0245,-0.0228,-0.0184,-0.017,-0.0128,-0.0084,-0.0016,-0.001,-0.0056,-0.0152,-0.0317,-0.0516,-0.0592,-0.0741,-0.0831,-0.0783,-0.082,-0.0884,-0.0883,-0.0899,-0.09,-0.09,-0.0901,-0.0901,0,-0.0295,-0.0256,-0.02,-0.0179,-0.0175,-0.0125,-0.0094,-0.0063,-0.0027,0.0031,0.0057,-0.004,-0.0054,-0.0326,-0.052,-0.0726,-0.0806,-0.085,-0.0784,-0.0841,-0.0889,-0.0887,-0.0886,-0.0761,-0.076,-0.076,-0.0759,0,-0.0287,-0.0241,-0.022,-0.0143,-0.0103,-0.0058,-0.0016,0.0042,0.0096,0.017,0.0234,0.0223,-0.0015,-0.0182,-0.0515,-0.0648,-0.0775,-0.0838,-0.0907,-0.0711,-0.0716,-0.0762,-0.0764,-0.0753,-0.0754,-0.0754,-0.0754,-0.0755,-0.0295,-0.0263,-0.0208,-0.0136,-0.0082,0.0014,0.0094,0.0153,0.0273,0.043,0.0373,0.042,0.0144,-0.0176,-0.0451,-0.0726,-0.0724,-0.0803,-0.0803,-0.0805,-0.0747,-0.0749,-0.0787,-0.0788,-0.0788,-0.0789,-0.079,0,-0.0307,-0.0264,-0.0221,-0.011,-0.0029,0.0019,0.0145,0.0259,0.0451,0.0563,0.066,0.0484,0.0262,-0.0052,-0.0423,-0.0667,-0.0676,-0.0753,-0.071,-0.0714,-0.0719,-0.0655,-0.0672,-0.0673,-0.0673,-0.0673,0,0,-0.0318,-0.0265,-0.0217,-0.0072,0.0019,0.019,0.0305,0.0492,0.0615,0.0772,0.0827,0.0802,0.0398,0.0154,-0.0211,-0.043,-0.0504,-0.0468,-0.0535,-0.0445,-0.0445,-0.0724,-0.0628,0,0,0,0,0]}],[{"header":{"parameterUnit":"m.s-1","parameterCategory":2,"la1":30.2991,"la2":30.254,"lo1":-89.0895,"lo2":-89.0444,"dy":0.0017,"dx":0.0017,"nx":28,"ny":28,"refTime":"2024-08-03T03:00:00:Z","depth":"4","parameterNumber":2,"parameterNumberName":"U-component_of_CURRENTS"},"data":[0,0,0,0,0,0,0,0,0,0,0,0,0,0,0,0,0,0,0,0,0,0,0,0,0,0,0,0,0,0,0,0,0,0,0,0,0,0,0,0,0,0,0,0,0,0,0,0,0,0,0,0,0,0,0,0,0,0,0.0823,0.0824,0,0.0942,0.0943,0.0944,0.1012,0.1013,0.1014,0.1015,0.1092,0.1093,0.1094,0,0,0,0,0,0,0,0,0,0,0,0,0,0.0715,0.0716,0.0822,0.0825,0.0827,0.0942,0.0943,0.0944,0.1012,0.1013,0.1014,0.1015,0.1091,0.1093,0.1094,0,0,0,0,0,0,0,0,0,0,0,0,0,0.0784,0.0716,0.0822,0.088,0.0887,0.0942,0.0943,0.0944,0.1012,0.1013,0.1014,0.1016,0.1091,0.1093,0.1094,0.1078,0,0,0.11,0.1101,0,0,0,0,0,0,0,0,0.078,0.0787,0.0869,0.0876,0.0884,0.097,0.0934,0.0989,0.1011,0.0956,0.1015,0.1016,0.1051,0.1056,0.1066,0.1081,0.1084,0.11,0.1101,0.1102,0.1102,0,0,0,0,0,0,0,0.0775,0.0782,0.0862,0.0872,0.0881,0.0923,0.0932,0.0945,0.0988,0.0961,0.0968,0.0993,0.1054,0.1064,0.1068,0.1086,0.11,0.1101,0.1103,0.1103,0.1196,0.1198,0,0,0,0,0,0,0.077,0.0777,0.0859,0.0867,0.0843,0.0924,0.0934,0.0935,0.0989,0.1001,0.0992,0.0996,0.106,0.1066,0.1071,0.1147,0.1102,0.1103,0.1104,0.1195,0.1197,0.1198,0,0,0,0,0,0,0.0767,0.0775,0.0854,0.0832,0.0846,0.0924,0.0925,0.0937,0.0983,0.1014,0.1024,0.1031,0.1061,0.1068,0.1107,0.1147,0.1104,0.1106,0.1193,0.1196,0.1197,0.124,0,0,0,0,0,0,0.0763,0.0772,0.0792,0.0831,0.0848,0.0911,0.0925,0.0939,0.0998,0.1005,0.105,0.1057,0.1063,0.1105,0.1109,0.1149,0.1107,0.1192,0.1194,0.1197,0.1237,0.1244,0.1249,0,0,0,0,0,0.0758,0.0775,0.0791,0.0803,0.0863,0.0914,0.0925,0.0981,0.0999,0.1025,0.105,0.1057,0.1125,0.1107,0.1112,0.1153,0.119,0.1194,0.1197,0.1234,0.1242,0.1249,0,0,0,0,0,0,0.072,0.0786,0.0803,0.0834,0.0883,0.0929,0.0967,0.0996,0.1037,0.105,0.1066,0.1074,0.1127,0.113,0.1109,0.1188,0.1163,0.1167,0.119,0.1197,0.1203,0.1219,0.1109,0,0,0,0,0,0.0723,0.0766,0.0816,0.0844,0.0869,0.092,0.0955,0.0991,0.1028,0.105,0.1075,0.1106,0.1137,0.1159,0.1181,0.1217,0.122,0.125,0.1256,0.1261,0.1278,0.1305,0.1315,0.1209,0.1209,0.1209,0,0,0.0725,0.076,0.079,0.0843,0.0881,0.0926,0.0943,0.1004,0.1039,0.1048,0.11,0.1127,0.115,0.1196,0.1221,0.1208,0.1292,0.1265,0.1269,0.1284,0.1309,0.132,0.1329,0.1211,0.121,0.121,0,0,0.0729,0.0768,0.0804,0.0845,0.0916,0.0954,0.0978,0.1036,0.1063,0.1118,0.1131,0.1187,0.1227,0.1256,0.1275,0.1328,0.1322,0.1334,0.1381,0.1407,0.1416,0.1424,0.1434,0.1443,0.1339,0.1339,0.1339,0,0.0731,0.0766,0.0822,0.0854,0.0901,0.0967,0.1008,0.1042,0.1106,0.1143,0.1147,0.126,0.1263,0.1342,0.1347,0.1345,0.1345,0.1349,0.1415,0.1423,0.143,0.1439,0.1448,0.1342,0.1342,0.1341,0.1341,0,0.0747,0.0792,0.0813,0.0884,0.0939,0.0988,0.1048,0.1098,0.1151,0.1204,0.1304,0.1331,0.1417,0.1413,0.1388,0.1455,0.1432,0.1415,0.1394,0.1443,0.1449,0.1458,0.1345,0.1344,0.1344,0.1343,0,0,0.0702,0.081,0.0817,0.0866,0.0961,0.1009,0.1072,0.1163,0.1217,0.131,0.1388,0.1458,0.1519,0.1542,0.1545,0.1544,0.157,0.1493,0.1493,0.1499,0.1615,0.1532,0.1532,0.1556,0.1558,0.156,0.1595,0,0.0699,0.0773,0.0825,0.0914,0.0969,0.1048,0.1109,0.1205,0.1272,0.1355,0.145,0.1537,0.1557,0.16,0.1622,0.1579,0.1596,0.1562,0.157,0.1571,0.1488,0.1541,0.1566,0.1601,0.1603,0.1604,0.1605,0,0.069,0.0749,0.0826,0.0958,0.0987,0.1056,0.1181,0.1246,0.1374,0.1427,0.1571,0.1632,0.1727,0.1691,0.1752,0.1727,0.1687,0.1642,0.1643,0.156,0.1504,0.1544,0.162,0.1619,0.1618,0.1617,0.1616,0,0.0642,0.0755,0.0824,0.0862,0.1006,0.1066,0.117,0.1294,0.135,0.1496,0.1561,0.171,0.1787,0.1799,0.1772,0.1759,0.1763,0.1746,0.1652,0.1645,0.1688,0.1679,0.1769,0.1769,0.1769,0.1769,0.1769,0,0.0617,0.0684,0.082,0.0851,0.0948,0.108,0.1179,0.1275,0.1414,0.1492,0.1636,0.17,0.1805,0.1832,0.1793,0.1764,0.1824,0.1677,0.1657,0.1704,0.1697,0.1693,0.1684,0.177,0.177,0.177,0.177,0,0.0566,0.0648,0.0723,0.0867,0.0921,0.1005,0.1181,0.1242,0.1405,0.1497,0.1561,0.1716,0.178,0.1835,0.182,0.1794,0.1747,0.1704,0.1751,0.1731,0.1608,0.1601,0.1646,0.1644,0.1642,0.164,0.1639,0,0.0546,0.0574,0.0695,0.0729,0.08,0.094,0.1015,0.1209,0.1252,0.148,0.1492,0.1644,0.1725,0.1685,0.1735,0.1727,0.169,0.1676,0.1656,0.1624,0.1601,0.1597,0.1592,0.1635,0.1635,0.1634,0.1634,0,0.0468,0.0506,0.0552,0.0627,0.0702,0.0784,0.0915,0.0959,0.1168,0.1309,0.1415,0.151,0.1575,0.1624,0.1631,0.1606,0.17,0.1654,0.1659,0.164,0.1611,0.1589,0.1587,0.1627,0.1628,0.1628,0.1629,0,0.0379,0.0383,0.0426,0.0506,0.0586,0.0643,0.0732,0.0833,0.0934,0.12,0.1213,0.1396,0.1531,0.1557,0.1543,0.155,0.1544,0.1498,0.151,0.1519,0.1465,0.1409,0.136,0,0,0,0,0,0.0285,0.0286,0.0315,0.0378,0.0466,0.0528,0.0655,0.0745,0.0945,0.098,0.1116,0.118,0.1305,0.1376,0.1362,0.1476,0.1522,0.1453,0.1466,0.1587,0.1595,0.1545,0,0,0,0,0,0,0.0212,0.0221,0.0259,0.0275,0.0321,0.0395,0.0492,0.0623,0.0647,0.0865,0.0914,0.1095,0.1186,0.1285,0.1329,0.1353,0.1338,0.1559,0.1557,0.1582,0.159,0.1596,0.1548,0,0,0,0,0]},{"header":{"parameterUnit":"m.s-1","parameterCategory":2,"la1":30.2991,"la2":30.254,"lo1":-89.0895,"lo2":-89.0444,"dy":0.0017,"dx":0.0017,"nx":28,"ny":28,"refTime":"2024-08-03T03:00:00:Z","depth":"4","parameterNumber":3,"parameterNumberName":"V-component_of_CURRENTS"},"data":[0,0,0,0,0,0,0,0,0,0,0,0,0,0,0,0,0,0,0,0,0,0,0,0,0,0,0,0,0,0,0,0,0,0,0,0,0,0,0,0,0,0,0,0,0,0,0,0,0,0,0,0,0,0,0,0,0,0,0.002,0.0019,0,-0.0063,-0.0064,-0.0065,-0.0102,-0.0103,-0.0103,-0.0103,-0.0187,-0.0189,-0.0191,0,0,0,0,0,0,0,0,0,0,0,0,0,0.0076,0.0076,0.002,0.0019,0.0017,-0.0063,-0.0064,-0.0065,-0.0102,-0.0103,-0.0103,-0.0103,-0.0186,-0.0189,-0.0191,0,0,0,0,0,0,0,0,0,0,0,0,0,0.0032,0.0076,0.002,-0.0014,-0.0018,-0.0063,-0.0064,-0.0065,-0.0102,-0.0103,-0.0103,-0.0103,-0.0185,-0.0188,-0.0191,-0.0203,0,0,-0.0201,-0.0202,0,0,0,0,0,0,0,0,0.0034,0.003,-0.0007,-0.0011,-0.0016,-0.0076,-0.0075,-0.0113,-0.0102,-0.0066,-0.0103,-0.0103,-0.0152,-0.0158,-0.0168,-0.0207,-0.0211,-0.0201,-0.0203,-0.0204,-0.0205,0,0,0,0,0,0,0,0.0038,0.0033,-0.0009,-0.0009,-0.0014,-0.0049,-0.0055,-0.0083,-0.0104,-0.007,-0.0073,-0.0088,-0.0154,-0.0165,-0.017,-0.0212,-0.0201,-0.0204,-0.0205,-0.0207,-0.0304,-0.0304,0,0,0,0,0,0,0.0045,0.0037,-0.0007,-0.0012,0.0005,-0.005,-0.0056,-0.0053,-0.0103,-0.0112,-0.0088,-0.009,-0.0159,-0.0166,-0.0173,-0.021,-0.0204,-0.0207,-0.0209,-0.0303,-0.0304,-0.0305,0,0,0,0,0,0,0.0047,0.0043,-0.0004,0.0006,-0.0003,-0.005,-0.0047,-0.0055,-0.0075,-0.0118,-0.0126,-0.0101,-0.016,-0.0169,-0.0203,-0.0213,-0.0208,-0.0211,-0.0302,-0.0303,-0.0304,-0.0272,0,0,0,0,0,0,0.0049,0.0045,0.0044,0.0008,-0.0003,-0.0035,-0.0048,-0.0056,-0.0085,-0.0088,-0.0132,-0.014,-0.0161,-0.0198,-0.0206,-0.0217,-0.0213,-0.0301,-0.0302,-0.0304,-0.0272,-0.0272,-0.0271,0,0,0,0,0,0.0052,0.0048,0.0045,0.0039,0.0001,-0.0035,-0.0044,-0.0077,-0.0085,-0.0095,-0.0123,-0.0139,-0.0213,-0.0201,-0.021,-0.0222,-0.03,-0.0302,-0.0304,-0.0272,-0.0272,-0.0271,0,0,0,0,0,0,0.0071,0.0043,0.0039,0.0028,-0.0002,-0.0043,-0.0059,-0.0079,-0.0109,-0.0112,-0.0145,-0.0155,-0.0193,-0.0213,-0.0198,-0.0256,-0.0261,-0.0265,-0.0234,-0.0234,-0.0234,-0.0227,-0.0216,0,0,0,0,0,0.0077,0.0068,0.0037,0.0027,0.0017,-0.0018,-0.0039,-0.0061,-0.0093,-0.0106,-0.0134,-0.0169,-0.0206,-0.0222,-0.0257,-0.0282,-0.0308,-0.0299,-0.0298,-0.0298,-0.03,-0.0359,-0.0364,-0.031,-0.031,-0.031,0,0,0.0079,0.0063,0.0057,0.003,0.0009,-0.0001,-0.003,-0.006,-0.0069,-0.0111,-0.0128,-0.0171,-0.0215,-0.0247,-0.0265,-0.0263,-0.0322,-0.03,-0.0299,-0.0302,-0.0361,-0.0366,-0.0371,-0.0311,-0.0311,-0.0311,0,0,0.0088,0.0071,0.0075,0.0054,0.0022,-0.0001,-0.0009,-0.0046,-0.0061,-0.009,-0.0125,-0.0176,-0.0216,-0.0256,-0.0279,-0.0301,-0.0324,-0.0309,-0.0297,-0.0353,-0.0358,-0.0363,-0.0378,-0.0384,-0.0303,-0.0303,-0.0303,0,0.0092,0.0098,0.0067,0.0066,0.0049,0.0005,0.0004,-0.0017,-0.0063,-0.0084,-0.0091,-0.0193,-0.0223,-0.0284,-0.0283,-0.0301,-0.032,-0.029,-0.0352,-0.0357,-0.0363,-0.0377,-0.0385,-0.0302,-0.0302,-0.0302,-0.0302,0,0.011,0.0111,0.0108,0.01,0.0076,0.0061,0.003,0.0008,-0.0019,-0.0053,-0.0122,-0.0179,-0.0244,-0.0261,-0.0271,-0.0329,-0.0324,-0.0348,-0.0348,-0.0366,-0.038,-0.0388,-0.03,-0.03,-0.0301,-0.0301,0,0,0.0125,0.0125,0.0124,0.0126,0.0091,0.0072,0.0059,0.0021,0.0011,-0.0058,-0.0089,-0.0174,-0.0226,-0.0257,-0.0299,-0.0339,-0.0376,-0.0345,-0.0348,-0.035,-0.0469,-0.0424,-0.0429,-0.0407,-0.0409,-0.0411,-0.0455,0,0.0149,0.0163,0.0154,0.0155,0.0151,0.0112,0.0107,0.0061,0.0025,-0.0012,-0.0111,-0.0161,-0.0218,-0.0246,-0.0305,-0.0366,-0.04,-0.036,-0.0461,-0.0463,-0.0414,-0.0438,-0.0417,-0.0461,-0.0463,-0.0464,-0.0465,0,0.0162,0.0171,0.0185,0.018,0.0178,0.0171,0.0138,0.013,0.0064,0.0034,-0.0061,-0.0127,-0.0227,-0.0251,-0.0398,-0.0368,-0.0411,-0.0454,-0.0457,-0.0435,-0.0435,-0.0448,-0.048,-0.0479,-0.0478,-0.0477,-0.0476,0,0.0159,0.0181,0.0194,0.0189,0.0185,0.0181,0.0172,0.0126,0.0129,0.0054,0.0037,-0.0108,-0.0165,-0.0282,-0.0376,-0.0391,-0.0496,-0.0538,-0.0541,-0.0537,-0.0577,-0.0572,-0.0622,-0.0622,-0.0622,-0.0622,-0.0622,0,0.0159,0.0163,0.0197,0.0193,0.022,0.0197,0.0214,0.0188,0.0163,0.0163,0.0053,0.0016,-0.0172,-0.0256,-0.0357,-0.0465,-0.0498,-0.0542,-0.0556,-0.0558,-0.0551,-0.0581,-0.0575,-0.0624,-0.0623,-0.0623,-0.0623,0,0.0134,0.0151,0.0175,0.0202,0.0213,0.0225,0.0256,0.0279,0.0239,0.0238,0.0214,0.0098,-0.003,-0.0176,-0.0336,-0.0423,-0.0533,-0.0546,-0.0495,-0.0504,-0.0543,-0.0535,-0.0601,-0.06,-0.0599,-0.0599,-0.0598,0,0.0123,0.0136,0.0196,0.0237,0.0252,0.0284,0.0323,0.0308,0.0334,0.0289,0.0291,0.0177,0.0087,-0.0107,-0.0272,-0.0463,-0.0482,-0.0528,-0.059,-0.0539,-0.0546,-0.054,-0.0534,-0.0597,-0.0597,-0.0596,-0.0596,0,0.0132,0.0159,0.0205,0.0287,0.0339,0.0396,0.0436,0.044,0.0431,0.0411,0.0352,0.0226,0.0106,-0.0092,-0.0206,-0.0352,-0.0513,-0.0521,-0.0525,-0.0585,-0.0534,-0.0541,-0.0536,-0.0593,-0.0594,-0.0594,-0.0594,0,0.0174,0.0215,0.0297,0.035,0.0437,0.0479,0.0481,0.0505,0.0507,0.044,0.0425,0.027,0.0175,-0.003,-0.0148,-0.0277,-0.0347,-0.0403,-0.0415,-0.042,-0.0361,-0.027,-0.0262,0,0,0,0,0,0.0217,0.0268,0.0354,0.0411,0.0496,0.0515,0.0568,0.0563,0.0532,0.0509,0.0461,0.0348,0.0132,0.003,-0.0097,-0.0159,-0.0372,-0.0311,-0.0443,-0.0577,-0.058,-0.0539,0,0,0,0,0,0,0.0262,0.0351,0.0369,0.046,0.0488,0.0564,0.058,0.0552,0.0529,0.0482,0.0371,0.0313,0.0106,0.0198,-0.0105,-0.0146,-0.0246,-0.0413,-0.0415,-0.0575,-0.0578,-0.0581,-0.054,0,0,0,0,0]}]]